Portada
METAR-TAF:

METAR-TAF

Aeroports :

Thimphu, Índia

latitud: 27-24-32N, longitud: 89-25-14E, altitud: 2235 m

Observació

L'informe es va fer fa 14 hores i 54 minuts, a les 09:00 UTC
Vent 15 kt del Sud/Sud-Est
Temperatura 28°C
Humitat 42%
Pressió 1011 hPa
Visibilitat 10 km o més
Escasses núvols a una alçada de 4000 ft
Cel ennuvolat a una alçada de 8000 ft

METAR: VQPR 030900Z 15015KT 9999 FEW040 BKN080 28/14 Q1011

Hora: 05:54 (23:54 UTC)


TAF: manca

Observacions i pronòstics meteorològics de més de 4000 aeroports (METAR i TAF).

Les estacions disponibles són els punts grocs i vermells al mapa.

Posi el ratolí al punt desitjat per veure el nom de l'estació.

Feu clic per veure les observacions i els pronòstics meteorològics.

Per canviar el mapa: feu clic els botons verds amb una creu de color negre per apropar; al botó verd amb un guió per allunyar la imatge; o en les fletxes verdes per a mapes adjacents.


METAR-TAF: